Location: Bethel Church
(38.0159°N, 88.7292°W)
Time: 01:48:04
(UTC+00:00)

Cosmos 1544 - Pass Details

Date: 08 December 2021
Orbit: 467 x 483 km, 82.5° (Epoch: 21 January)

Event Time Altitude Azimuth Distance (km) Brightness Sun altitude
Rises 23:48:41 0° 360° (N) 2,539 6.5 -14.1°
Reaches altitude 10° 23:50:51 10° 7° (N) 1,659 5.5 -14.5°
Maximum altitude 23:54:19 43° 80° (E) 690 3.3 -15.2°
Drops below altitude 10° 23:57:47 10° 153° (SSE) 1,655 5.7 -15.8°
Sets 23:59:57 0° 160° (SSE) 2,532 6.7 -16.2°
